Find Starlink 11156

NORAD ID: 61056 Int'l Des: 2024-164 Owner: SPXS Country: US Constellation: starlink operational
別名: STARLINK-11156 [DTC] celestrak
LEOCIRCULAR

現在のビュー

3D地球を読み込み中...

About Starlink 11156

Starlink 11156 (NORAD 61056) is a starlink constellation satellite (v2 mini d2c) launched Sep 13, 2024 by SPXS of US. It operates in LEO, CIRCULAR orbit with a mass of 960.00 kg.

次回通過

Passes for default location (London). Set your location on the main map for personalized predictions.

高度履歴

Loading altitude history...

軌道要素

1 61056U 24164G 26237.16109777 -.00001454 00000-0 -71511-5 0 9999
2 61056 53.1592 200.4399 0001045 89.0307 271.0831 15.69701672111884
Epoch: Aug 25, 2026 • Age: 28 hours

現在のステータス

高度 365.5 km
遠地点 / 近地点 N/A
速度 7.70 km/s
衛星直下点 52.91°N, 175.56°W
打ち上げ日 Sep 13, 2024
運用期間 1.9 years
タイプ internet

技術仕様

分類 Payload
質量 960.00 kg
乾燥質量 910.00 kg
総質量 960.00 kg
長さ 0.30 m
直径 4.10 m
スパン 29.00 m
形状 Box + pan
製造者 SPXS
バスタイプ Starlink V2MD
フェーズステータス In Orbit
所有者/国 SPXS/US

Most Searched